Owosso, MI

8:54 AM EDT on August 23, 2017 (GMT -0400)
Owosso

Weather History for KRNP - November, 2013

Change the Weather History Date:

Monday, November 4, 2013

  Actual Average (KFNT) Record (KFNT)
Temperature  
Mean Temperature 41 °F -  
Max Temperature 50 °F 49 °F 80 °F (2015)
Min Temperature 32 °F 34 °F 18 °F (1951)
Degree Days  
Heating Degree Days 24    
Moisture  
Dew Point 29 °F    
Average Humidity 62    
Maximum Humidity 92    
Minimum Humidity 32    
Precipitation  
Precipitation 0.00 in - - ()
Sea Level Pressure  
Sea Level Pressure 30.36 in    
Wind  
Wind Speed 9 mph (SE)    
Max Wind Speed 14 mph    
Max Gust Speed 23 mph    
Visibility 10 miles    
Events      
Averages and records for this station are not official NWS values.
T = Trace of Precipitation, MM = Missing Value Source: NWS Daily Summary

Daily Weather History Graph

Daily Weather History Graph

Search for Another Location

Airport or City:

Trip Planner

Search our weather history database for the weather conditions in past years. The results will help you decide how hot, cold, wet, or windy it might be!

Date:

Astronomy

Nov. 04, 2013 Rise Set
Actual Time 7:15 AM EST 5:24 PM EST
Civil Twilight 6:45 AM EST 5:54 PM EST
Nautical Twilight 6:11 AM EST 6:27 PM EST
Astronomical Twilight 5:38 AM EST 7:00 PM EST
Moon 8:26 AM EST (11/4) 6:26 PM EST (11/4)
Length of Visible Light 11h 08m
Length of Day
10h 09m
New Moon, 2% of the Moon is Illuminated
Nov 4
New Moon
Nov 10
First Quarter
Nov 17
Full
Nov 25
Last Quarter
Dec 2
New

Hourly Weather History & Observations

Time (EST) Temp. Windchill Dew Point Humidity Pressure Visibility Wind Dir Wind Speed Gust Speed Precip Events Conditions
12:15 AM 33.4 °F 29.1 °F 30.2 °F 88% 30.44 in 10.0 mi ESE 4.6 mph - N/A   Clear
12:35 AM 32.9 °F 28.5 °F 30.2 °F 90% 30.44 in 10.0 mi East 4.6 mph - N/A   Clear
12:54 AM 32.7 °F 28.3 °F 30.2 °F 90% 30.44 in 10.0 mi East 4.6 mph - N/A   Clear
1:15 AM 32.9 °F 27.5 °F 30.2 °F 90% 30.43 in 10.0 mi East 5.8 mph - N/A   Clear
1:35 AM 33.3 °F 27.1 °F 30.6 °F 90% 30.44 in 10.0 mi East 6.9 mph - N/A   Clear
1:54 AM 33.8 °F 27.7 °F 30.6 °F 88% 30.44 in 10.0 mi ESE 6.9 mph - N/A   Clear
2:15 AM 33.4 °F 28.1 °F 30.6 °F 89% 30.44 in 10.0 mi ESE 5.8 mph - N/A   Clear
2:35 AM 33.4 °F 27.3 °F 30.9 °F 90% 30.44 in 10.0 mi ESE 6.9 mph - N/A   Clear
2:54 AM 33.3 °F 27.9 °F 31.1 °F 92% 30.44 in 10.0 mi ESE 5.8 mph - N/A   Clear
3:15 AM 33.3 °F 28.9 °F 31.1 °F 92% 30.44 in 10.0 mi ESE 4.6 mph - N/A   Clear
3:35 AM 33.3 °F 27.9 °F 31.1 °F 92% 30.43 in 10.0 mi East 5.8 mph - N/A   Clear
3:54 AM 34.2 °F 30.0 °F 31.8 °F 91% 30.43 in 10.0 mi ESE 4.6 mph - N/A   Clear
4:15 AM 35.2 °F 28.8 °F 32.0 °F 88% 30.42 in 10.0 mi ESE 8.1 mph - N/A   Clear
4:35 AM 36.9 °F 29.1 °F 33.3 °F 87% 30.43 in 10.0 mi SE 11.5 mph - N/A   Clear
4:55 AM 38.3 °F 31.4 °F 33.8 °F 84% 30.43 in 10.0 mi SE 10.4 mph - N/A   Clear
5:14 AM 38.3 °F 30.9 °F 33.8 °F 84% 30.43 in 10.0 mi SE 11.5 mph - N/A   Clear
5:35 AM 38.7 °F 30.5 °F 33.8 °F 83% 30.43 in 10.0 mi SE 13.8 mph - N/A   Clear
5:55 AM 38.7 °F 32.4 °F 33.8 °F 83% 30.44 in 10.0 mi SE 9.2 mph - N/A   Clear
6:14 AM 38.7 °F 31.8 °F 33.4 °F 81% 30.44 in 10.0 mi SE 10.4 mph - N/A   Clear
6:35 AM 38.5 °F 31.1 °F 33.3 °F 81% 30.44 in 10.0 mi SE 11.5 mph 17.3 mph N/A   Clear
6:55 AM 38.3 °F 31.4 °F 32.9 °F 81% 30.43 in 10.0 mi SE 10.4 mph - N/A   Clear
7:14 AM 38.5 °F 32.1 °F 32.4 °F 79% 30.43 in 10.0 mi ESE 9.2 mph 16.1 mph N/A   Clear
7:35 AM 38.5 °F 31.6 °F 31.6 °F 76% 30.44 in 10.0 mi SE 10.4 mph 16.1 mph N/A   Clear
7:55 AM 38.7 °F 31.8 °F 30.7 °F 73% 30.43 in 10.0 mi SE 10.4 mph 16.1 mph N/A   Clear
8:14 AM 39.2 °F 32.0 °F 30.6 °F 71% 30.43 in 10.0 mi ESE 11.5 mph 17.3 mph N/A   Clear
8:35 AM 39.4 °F 32.3 °F 30.7 °F 71% 30.43 in 10.0 mi SE 11.5 mph 17.3 mph N/A   Clear
8:55 AM 40.3 °F 33.9 °F 31.1 °F 70% 30.43 in 10.0 mi SE 10.4 mph 17.3 mph N/A   Clear
9:15 AM 40.6 °F 33.8 °F 30.9 °F 68% 30.43 in 10.0 mi SE 11.5 mph 19.6 mph N/A   Clear
9:35 AM 41.4 °F 35.7 °F 31.1 °F 67% 30.43 in 10.0 mi SSE 9.2 mph - N/A   Clear
9:54 AM 41.9 °F 36.3 °F 30.6 °F 64% 30.42 in 10.0 mi SE 9.2 mph 17.3 mph N/A   Clear
10:15 AM 42.8 °F 36.6 °F 30.6 °F 62% 30.42 in 10.0 mi SE 11.5 mph 17.3 mph N/A   Clear
10:35 AM 43.0 °F 37.2 °F 30.0 °F 60% 30.42 in 10.0 mi SE 10.4 mph 16.1 mph N/A   Clear
10:54 AM 43.5 °F 37.1 °F 28.9 °F 56% 30.43 in 10.0 mi SE 12.7 mph 16.1 mph N/A   Clear
11:15 AM 45.5 °F 40.3 °F 29.3 °F 53% 30.42 in 10.0 mi SSE 10.4 mph 16.1 mph N/A   Clear
11:34 AM 46.4 °F 41.1 °F 27.3 °F 47% 30.41 in 10.0 mi SE 11.5 mph - N/A   Clear
11:55 AM 48.0 °F - 27.5 °F 45% 30.38 in 10.0 mi SE 11.5 mph 17.3 mph N/A   Clear
12:15 PM 48.0 °F - 25.2 °F 41% 30.38 in 10.0 mi SE 11.5 mph 23.0 mph N/A   Clear
12:34 PM 48.6 °F - 24.3 °F 39% 30.36 in 10.0 mi SE 10.4 mph 19.6 mph N/A   Clear
12:55 PM 49.1 °F - 23.9 °F 37% 30.36 in 10.0 mi ESE 10.4 mph 19.6 mph N/A   Clear
1:15 PM 49.1 °F - 22.6 °F 35% 30.36 in 10.0 mi SE 11.5 mph 16.1 mph N/A   Clear
1:34 PM 49.5 °F - 22.8 °F 35% 30.35 in 10.0 mi SE 9.2 mph 21.9 mph N/A   Clear
1:55 PM 50.0 °F - 23.0 °F 35% 30.33 in 10.0 mi SE 13.8 mph 23.0 mph N/A   Clear
2:15 PM 49.6 °F - 22.1 °F 34% 30.33 in 10.0 mi SE 13.8 mph 19.6 mph N/A   Clear
2:35 PM 50.2 °F - 22.1 °F 33% 30.32 in 10.0 mi SE 11.5 mph - N/A   Clear
2:55 PM 50.2 °F - 21.9 °F 33% 30.31 in 10.0 mi SE 13.8 mph 17.3 mph N/A   Clear
3:15 PM 50.0 °F - 21.4 °F 32% 30.31 in 10.0 mi SE 12.7 mph 17.3 mph N/A   Clear
3:35 PM 49.6 °F - 23.4 °F 36% 30.31 in 10.0 mi SE 13.8 mph 19.6 mph N/A   Clear
3:55 PM 49.1 °F - 23.9 °F 37% 30.30 in 10.0 mi SE 9.2 mph 16.1 mph N/A   Clear
4:14 PM 49.1 °F - 24.1 °F 38% 30.30 in 10.0 mi SE 12.7 mph 18.4 mph N/A   Clear
4:35 PM 48.6 °F - 24.1 °F 38% 30.30 in 10.0 mi SE 6.9 mph 17.3 mph N/A   Clear
4:55 PM 48.2 °F - 24.3 °F 39% 30.28 in 10.0 mi ESE 11.5 mph 16.1 mph N/A   Clear
5:14 PM 47.5 °F - 24.3 °F 40% 30.29 in 10.0 mi SE 9.2 mph - N/A   Clear
5:35 PM 47.3 °F - 24.8 °F 41% 30.28 in 10.0 mi ESE 11.5 mph 17.3 mph N/A   Clear
5:55 PM 46.8 °F - 25.5 °F 43% 30.28 in 10.0 mi SE 9.2 mph 16.1 mph N/A   Clear
6:14 PM 46.4 °F 41.5 °F 26.1 °F 45% 30.27 in 10.0 mi SE 10.4 mph 18.4 mph N/A   Clear
6:35 PM 46.4 °F 41.5 °F 26.2 °F 45% 30.28 in 10.0 mi SE 10.4 mph 17.3 mph N/A   Clear
6:55 PM 45.7 °F 39.8 °F 26.6 °F 47% 30.28 in 10.0 mi SE 12.7 mph 19.6 mph N/A   Clear
7:14 PM 45.5 °F 39.9 °F 27.5 °F 49% 30.28 in 10.0 mi SE 11.5 mph 17.3 mph N/A   Clear
7:35 PM 45.0 °F 41.2 °F 28.4 °F 52% 30.27 in 10.0 mi SE 6.9 mph 17.3 mph N/A   Clear
7:54 PM 44.8 °F 39.4 °F 28.9 °F 54% 30.27 in 10.0 mi SE 10.4 mph 16.1 mph N/A   Clear
8:15 PM 44.6 °F 39.2 °F 30.0 °F 57% 30.28 in 10.0 mi SSE 10.4 mph - N/A   Clear
8:35 PM 44.6 °F 39.7 °F 30.7 °F 58% 30.27 in 10.0 mi SE 9.2 mph - N/A   Clear
8:54 PM 44.6 °F 40.2 °F 30.9 °F 59% 30.27 in 10.0 mi SE 8.1 mph - N/A   Clear
9:15 PM 43.9 °F 38.8 °F 31.1 °F 61% 30.27 in 10.0 mi SE 9.2 mph - N/A   Clear
9:35 PM 43.9 °F 39.3 °F 31.1 °F 61% 30.28 in 10.0 mi SSE 8.1 mph - N/A   Clear
9:55 PM 43.9 °F 38.8 °F 31.5 °F 62% 30.27 in 10.0 mi SSE 9.2 mph - N/A   Clear
10:15 PM 43.9 °F 38.8 °F 31.6 °F 62% 30.28 in 10.0 mi SSE 9.2 mph - N/A   Clear
10:34 PM 44.2 °F 39.2 °F 32.0 °F 62% 30.27 in 10.0 mi SSE 9.2 mph 17.3 mph N/A   Clear
10:55 PM 44.6 °F 38.8 °F 32.0 °F 61% 30.26 in 10.0 mi SSE 11.5 mph - N/A   Mostly Cloudy
11:15 PM 45.5 °F 39.9 °F 32.7 °F 61% 30.26 in 10.0 mi South 11.5 mph - N/A   Overcast
11:34 PM 45.9 °F 41.2 °F 33.3 °F 61% 30.26 in 10.0 mi SSE 9.2 mph - N/A   Overcast
11:55 PM 46.4 °F 41.5 °F 34.2 °F 62% 30.26 in 10.0 mi South 10.4 mph - N/A   Overcast